Actual water levels and discharges of Elbe river

Guaranteed water level and forecast    Ústí nad Labem-Střekov

Guaranteed water level
225 cm
on 21.02.2020 more information
Forecast
225 cm
on 22.02.2020 07:00
Tendency
Slowly decreasing
on 22.02.2020 metodika tendence
Forecast
(Source data ČHMÚ a Povodí Labe)

Děčín

Date and time (UTC) H (cm) Q (m3/s)
22. 2. 2020 07:00 205 264
22. 2. 2020 06:00 205 264
22. 2. 2020 05:00 205 264
22. 2. 2020 04:00 205 264
22. 2. 2020 03:00 205 264
22. 2. 2020 02:00 205 264
22. 2. 2020 01:00 205 264
22. 2. 2020 00:00 205 264
21. 2. 2020 23:00 205 264
21. 2. 2020 22:00 205 264
21. 2. 2020 21:00 205 264
21. 2. 2020 20:00 205 264
21. 2. 2020 19:00 205 264

H - water level, Q - discharge

Ústí nad Labem

Date and time (UTC) H (cm) Q (m3/s)
22. 2. 2020 06:50 234 262
22. 2. 2020 06:00 232 257
22. 2. 2020 05:00 228 249
22. 2. 2020 04:00 228 249
22. 2. 2020 03:00 228 249
22. 2. 2020 02:00 228 249
22. 2. 2020 01:00 228 249
22. 2. 2020 00:00 228 249
21. 2. 2020 23:00 228 249
21. 2. 2020 22:00 228 249
21. 2. 2020 21:00 228 249
21. 2. 2020 20:00 228 249
21. 2. 2020 19:00 228 249
21. 2. 2020 18:00 228 249

H - water level, Q - discharge
more information

Mělník

Date and time (UTC) H (cm) Q (m3/s)
22. 2. 2020 06:50 275 -
22. 2. 2020 06:00 275 -
22. 2. 2020 05:00 275 -
22. 2. 2020 04:00 274 -
22. 2. 2020 03:00 274 -
22. 2. 2020 02:00 274 -
22. 2. 2020 01:00 274 -
22. 2. 2020 00:00 275 -
21. 2. 2020 23:00 275 -
21. 2. 2020 22:00 275 -
21. 2. 2020 21:00 275 -
21. 2. 2020 20:00 276 -
21. 2. 2020 19:00 277 -
21. 2. 2020 18:00 276 -

H - water level, Q - discharge
more information

Kostelec nad Labem

Date and time (UTC) H (cm) Q (m3/s)
22. 2. 2020 07:00 409 82
22. 2. 2020 06:00 409 80
22. 2. 2020 05:00 409 80
22. 2. 2020 04:00 409 79
22. 2. 2020 03:00 409 78
22. 2. 2020 02:00 408 79
22. 2. 2020 01:00 408 78
22. 2. 2020 00:00 409 78
21. 2. 2020 23:00 409 82
21. 2. 2020 22:00 409 80
21. 2. 2020 21:00 409 81
21. 2. 2020 20:00 409 80
21. 2. 2020 19:00 408 80

H - water level, Q - discharge
more information

Přelouč

Date and time (UTC) H (cm) Q (m3/s)
22. 2. 2020 07:00 98 59
22. 2. 2020 06:00 101 62
22. 2. 2020 05:00 102 63
22. 2. 2020 04:00 103 64
22. 2. 2020 03:00 102 63
22. 2. 2020 02:00 102 63
22. 2. 2020 01:00 101 62
22. 2. 2020 00:00 102 63
21. 2. 2020 23:00 100 61
21. 2. 2020 22:00 100 61
21. 2. 2020 21:00 100 61
21. 2. 2020 20:00 100 61
21. 2. 2020 19:00 100 61

H - water level, Q - discharge
more information

Němčice

Date and time (UTC) H (cm) Q (m3/s)
22. 2. 2020 06:40 153 52
22. 2. 2020 06:00 153 52
22. 2. 2020 05:00 152 51
22. 2. 2020 04:00 152 51
22. 2. 2020 03:00 152 51
22. 2. 2020 02:00 153 52
22. 2. 2020 01:00 153 52
22. 2. 2020 00:00 153 52
21. 2. 2020 23:00 153 52
21. 2. 2020 22:00 153 52
21. 2. 2020 21:00 151 51
21. 2. 2020 20:00 151 51
21. 2. 2020 19:00 151 51
21. 2. 2020 18:00 150 50

H - water level, Q - discharge
Source data
Labe Basin Vltava Basin ČHMÚ